Regional Weather Roundup
Issued by NWS

Home | Current Version | Previous Version | Graphics & Text | Print | Product List | Glossary On
Versions: 1 2 3 4 5 6 7 8 9 10 11 12 13 14 15 16 17 18 19 20 21 22 23 24 25 26 27 28
000
ASUS45 KBOU 031607
RWRCO

WEATHER ROUNDUP FOR COLORADO
NATIONAL WEATHER SERVICE DENVER/BOULDER CO
1000 AM MDT TUE MAY 03 2016

NOTE: "FAIR" INDICATES FEW OR NO CLOUDS BELOW 12000 FEET WITH NO
SIGNIFICANT WEATHER AND/OR OBSTRUCTIONS TO VISIBILITY.

COZ001>005-013-030-031-031700-
...NORTHWEST COLORADO...

CITY           SKY/WX    TMP DP  RH WIND       PRES   REMARKS
CRAIG          FAIR      49  27  42 CALM      30.30S
HAYDEN         FAIR      48  23  37 E3        30.29S
MEEKER         FAIR      50  28  42 S3        30.29S
MOUNT WERNER   NOT AVBL
STEAMBOAT SPGS FAIR      45  24  44 CALM      30.30S
WALDEN         FAIR      43  23  45 W6        30.34S
$$

COZ006>008-011-031700-
...WEST CENTRAL VALLEYS...

CITY           SKY/WX    TMP DP  RH WIND       PRES   REMARKS
GRAND JUNCTION FAIR      56  33  42 VRB6      30.24S
MONTROSE       FAIR      55  33  43 CALM      30.28S
EAGLE          SUNNY     46  27  46 CALM      30.32F
RIFLE          FAIR      52  31  44 CALM      30.27S
DELTA          NOT AVBL
NUCLA          NOT AVBL
$$

COZ017>023-064>068-031700-
...SOUTHWEST COLORADO...

CITY           SKY/WX    TMP DP  RH WIND       PRES   REMARKS
DURANGO        FAIR      50  31  48 CALM      30.24S
CORTEZ         FAIR      53  33  46 S3        30.23F
PAGOSA SPRINGS FAIR      48  29  47 CALM      30.27S
TELLURIDE      NOT AVBL
WOLF CREEK PAS FAIR      32  16  51 NE16      30.41R WCI  21
$$

COZ009-010-012-014-032>034-037-058>063-031700-
...CENTRAL COLORADO...

CITY           SKY/WX    TMP DP  RH WIND       PRES   REMARKS
ASPEN          FAIR      49  25  39 N8        30.29S
BUENA VISTA    FAIR      50  17  26 NW14G22   30.28S
COPPER MTN     NOT AVBL
BERTHOUD PASS  FAIR      21  10  63 N9G17     30.40R WCI  11
COTTONWOOD PAS FAIR      46  14  27 CALM      30.33S
GUNNISON       FAIR      45  27  49 CALM      30.32F
KREMMLING      FAIR      46  19  34 CALM      30.33S
LEADVILLE      FAIR      39  11  31 N10G16    30.31F
MONARCH PASS   FAIR      30  18  59 MISG      30.48S
SALIDA         NOT AVBL
SUNLIGHT       FAIR      37  19  48 CALM      30.43R
WILKERSON PASS FAIR      32  19  59 CALM      30.39R
$$

COZ069>075-031700-
...SAN LUIS VALLEY/SANGRE DE CRISTO MOUNTAINS...

CITY           SKY/WX    TMP DP  RH WIND       PRES   REMARKS
ALAMOSA        FAIR      48  32  53 E7        30.27S
LA VETA PASS   FAIR      39  28  65 CALM      30.34R
SAGUACHE       FAIR      50  27  40 W8        30.28S
$$

COZ035-036-038>040-031700-
...NORTHERN COLORADO FRONT RANGE...

CITY           SKY/WX    TMP DP  RH WIND       PRES   REMARKS
DENVER INTL AP FAIR      58  32  37 N16       30.22S
DMNS CITY PARK   N/A     57  27  31 N14G22    30.24R
AURORA         FAIR      56  31  39 N15G24    30.24R
FRONT RANGE AP MOSUNNY   55  32  41 N17G24    30.23R
ERIE MUNI ARPT FAIR      59  28  30 N15G22    30.22S
BOULDER MUN AP FAIR      59  30  33 N15       30.22S
CENTENNIAL     FAIR      54  28  36 N16G24    30.24R
BROOMFIELD     MOSUNNY   57  28  33 N8        30.24S
FORT COLLINS   FAIR      59  34  38 N16G25    30.23S
LONGMONT       FAIR      62  31  31 N10G22    30.24R
$$

COZ041-046-047-076>085-087-088-031700-
...PIKES PEAK/PALMER DIVIDE AND SOUTHERN FOOTHILLS...

CITY           SKY/WX    TMP DP  RH WIND       PRES   REMARKS
COLO. SPRINGS  FAIR      55  25  31 N21G31    30.25R
A. F. ACADEMY  FAIR      52  27  37 N15G28    30.25R
SCHRIEVER AFB  NOT AVBL
ELLICOTT       FAIR     N/A N/A N/A N28G36    30.21R
FALCON         FAIR      50  26  39 N21G30    30.26R
FORT CARSON    FAIR      57  27  31 N24G32    30.22S
LIMON          FAIR      51  37  58 N23G31    30.19R
MONUMENT HILL  FAIR      45  30  57 N17G24    30.28R
TRINIDAD       FAIR      54  33  45 N15       30.23F
$$

COZ042>045-048>051-090-091-031700-
...NORTHEAST COLORADO...

CITY           SKY/WX    TMP DP  RH WIND       PRES   REMARKS
GREELEY ARPT   FAIR      61  36  39 N20G29    30.20S
AKRON          FAIR      53  36  52 N20       30.18R
BURLINGTON     FAIR      55  37  50 N16G25    30.14R
WRAY           NOT AVBL
STERLING       FAIR      55  37  50 N10G16    30.16R
HOLYOKE        NOT AVBL
FORT MORGAN    NOT AVBL
$$

COZ086-089-092>099-031700-
...SOUTHEAST COLORADO...

CITY           SKY/WX    TMP DP  RH WIND       PRES   REMARKS
PUEBLO         FAIR      63  27  25 N21       30.19F
LA JUNTA       FAIR      64  34  32 N25       30.16S
LAMAR          FAIR      63  38  39 NW16      30.11S
SPRINGFIELD      N/A     59  36  42 NW20G28   30.14R
$$




USA.gov is the U.S. government's official web portal to all federal, state and local government web resources and services.